Find Starlink 30544

NORAD ID: 58055 Int'l Des: 2023-158 Owner: SPXS Country: US Constellation: starlink operational
LEOCIRCULAR

实时位置

正在加载3D地球...

关于 Starlink 30544

正在加载描述...

即将过境

Passes for default location (London). Set your location on the main map for personalized predictions.

高度历史

Loading altitude history...

两行轨道根数

1 58055U 23158E 26133.09514036 -.00000813 00000-0 -20018-4 0 9994
2 58055 43.0050 23.0073 0001686 255.3719 104.6945 15.27572074143428
Epoch: May 13, 2026 • Age: 15 hours

当前状态

高度 482.9 km
速度 7.63 km/s
星下点 -1.99°S, 72.09°E
发射日期 Oct 13, 2023
运行时间 2.5 years
类型 internet

技术详情

分类 Payload
质量 730.00 kg
干质量 700.00 kg
总质量 730.00 kg
长度 0.30 m
直径 4.10 m
跨度 29.00 m
形状 Box + pan
制造商 SPXS
平台类型 Starlink V2M
阶段状态 In Orbit
所有者/国家 SPXS/US

Most Searched